FDA204 RJFF-RJAF

Flight info

Callsign FDA204
Flight time 1h 0m
Altitude 35000
Route ENGID Y412 MYE Y33 LABEL Y121 MBE
Aircraft E75L/M-SDFGILORVWY/H

Departure

Time 2026-04-12 05:18
Airport Fukuoka Airport (RJFF)

Arrival

Time 2026-04-12 06:19
Airport Shinshu-Matsumoto Airport (RJAF)
Time Latitude Longitude Altitude Speed Heading
2026-04-12 05:13 33.60046 130.44494 23 ft 0 kts 60°
2026-04-12 05:13 33.60037 130.44475 23 ft 4 kts 60°
2026-04-12 05:13 33.60026 130.44447 25 ft 4 kts 80°
2026-04-12 05:14 33.60031 130.44418 25 ft 4 kts 126°
2026-04-12 05:14 33.60050 130.44398 25 ft 2 kts 149°
2026-04-12 05:14 33.60052 130.44397 24 ft 0 kts 150°
2026-04-12 05:16 33.60048 130.44399 26 ft 4 kts 150°
2026-04-12 05:16 33.59998 130.44434 23 ft 12 kts 150°
2026-04-12 05:17 33.59919 130.44471 23 ft 12 kts 195°
2026-04-12 05:17 33.59860 130.44388 23 ft 14 kts 227°
2026-04-12 05:17 33.59760 130.44341 21 ft 17 kts 194°
2026-04-12 05:17 33.59646 130.44348 23 ft 17 kts 152°
2026-04-12 05:18 33.59390 130.44521 24 ft 81 kts 150°
2026-04-12 05:18 33.58671 130.45011 32 ft 153 kts 151°
2026-04-12 05:18 33.57699 130.45692 686 ft 164 kts 149°
2026-04-12 05:18 33.56684 130.46405 1507 ft 176 kts 149°
2026-04-12 05:19 33.55550 130.47110 2307 ft 195 kts 151°
2026-04-12 05:19 33.54294 130.47866 3179 ft 214 kts 152°
2026-04-12 05:19 33.52895 130.48734 4056 ft 235 kts 152°
2026-04-12 05:19 33.51375 130.49665 5044 ft 251 kts 152°
2026-04-12 05:20 33.49770 130.50658 6074 ft 265 kts 153°
2026-04-12 05:20 33.48103 130.51688 7217 ft 272 kts 153°
2026-04-12 05:20 33.46398 130.52745 8267 ft 278 kts 153°
2026-04-12 05:20 33.44664 130.53826 9326 ft 284 kts 153°
2026-04-12 05:21 33.42897 130.54921 10346 ft 290 kts 153°
2026-04-12 05:21 33.41052 130.56071 11025 ft 306 kts 153°
2026-04-12 05:21 33.39122 130.57269 11824 ft 318 kts 153°
2026-04-12 05:21 33.37162 130.58484 12789 ft 324 kts 154°
2026-04-12 05:22 33.35141 130.59736 13840 ft 330 kts 154°
2026-04-12 05:22 33.33092 130.61006 14857 ft 334 kts 154°
2026-04-12 05:22 33.31005 130.62298 15847 ft 342 kts 155°
2026-04-12 05:22 33.28926 130.63745 16688 ft 354 kts 144°
2026-04-12 05:23 33.27347 130.66056 17572 ft 368 kts 120°
2026-04-12 05:23 33.26578 130.69008 18413 ft 379 kts 97°
2026-04-12 05:23 33.26774 130.72179 19049 ft 390 kts 74°
2026-04-12 05:23 33.27695 130.75253 19713 ft 397 kts 66°
2026-04-12 05:24 33.28779 130.78306 20529 ft 398 kts 65°
2026-04-12 05:24 33.29914 130.81373 21199 ft 407 kts 63°
2026-04-12 05:24 33.31054 130.84515 21798 ft 416 kts 66°
2026-04-12 05:24 33.31945 130.87845 22404 ft 426 kts 72°
2026-04-12 05:25 33.32749 130.91297 22967 ft 434 kts 71°
2026-04-12 05:25 33.33576 130.94803 23536 ft 442 kts 71°
2026-04-12 05:25 33.34407 130.98320 24013 ft 448 kts 71°
2026-04-12 05:25 33.35260 131.01932 24496 ft 454 kts 71°
2026-04-12 05:26 33.36132 131.05583 24961 ft 460 kts 71°
2026-04-12 05:26 33.37030 131.09277 25431 ft 465 kts 71°
2026-04-12 05:26 33.37936 131.13017 25881 ft 470 kts 71°
2026-04-12 05:26 33.38861 131.16807 26325 ft 477 kts 70°
2026-04-12 05:27 33.39962 131.20551 26787 ft 480 kts 67°
2026-04-12 05:27 33.41112 131.24327 27260 ft 484 kts 67°
2026-04-12 05:27 33.42259 131.28145 27692 ft 490 kts 68°
2026-04-12 05:27 33.43414 131.32005 28114 ft 495 kts 68°
2026-04-12 05:28 33.44573 131.35905 28554 ft 500 kts 68°
2026-04-12 05:28 33.45739 131.39846 28978 ft 504 kts 68°
2026-04-12 05:28 33.46916 131.43830 29372 ft 509 kts 68°
2026-04-12 05:28 33.48102 131.47862 29757 ft 514 kts 69°
2026-04-12 05:29 33.49292 131.51919 30087 ft 519 kts 69°
2026-04-12 05:29 33.50493 131.56014 30416 ft 523 kts 68°
2026-04-12 05:29 33.51698 131.60132 30784 ft 525 kts 68°
2026-04-12 05:29 33.52894 131.64222 31133 ft 528 kts 68°
2026-04-12 05:30 33.54113 131.68406 31441 ft 532 kts 68°
2026-04-12 05:30 33.55337 131.72607 31762 ft 536 kts 67°
2026-04-12 05:30 33.56568 131.76832 32088 ft 538 kts 67°
2026-04-12 05:30 33.57799 131.81072 32493 ft 538 kts 66°
2026-04-12 05:31 33.59031 131.85317 32948 ft 537 kts 66°
2026-04-12 05:31 33.60258 131.89550 33392 ft 537 kts 66°
2026-04-12 05:31 33.61482 131.93780 33809 ft 537 kts 66°
2026-04-12 05:31 33.62711 131.98034 34118 ft 539 kts 66°
2026-04-12 05:32 33.63920 132.02225 34511 ft 537 kts 66°
2026-04-12 05:32 33.65139 132.06457 34867 ft 536 kts 65°
2026-04-12 05:32 33.66358 132.10693 35059 ft 540 kts 65°
2026-04-12 05:33 33.68849 132.19354 35066 ft 555 kts 66°
2026-04-12 05:33 33.71378 132.28192 35089 ft 563 kts 66°
2026-04-12 05:34 33.73918 132.37108 35015 ft 563 kts 66°
2026-04-12 05:34 33.76444 132.45995 35003 ft 560 kts 66°
2026-04-12 05:35 33.78953 132.54841 35001 ft 564 kts 66°
2026-04-12 05:35 33.81478 132.63776 34997 ft 563 kts 66°
2026-04-12 05:36 33.83986 132.72697 34997 ft 563 kts 66°
2026-04-12 05:36 33.86465 132.81653 34999 ft 563 kts 66°
2026-04-12 05:37 33.88940 132.90621 35014 ft 564 kts 66°
2026-04-12 05:37 33.91398 132.99536 35005 ft 564 kts 66°
2026-04-12 05:38 33.93867 133.08532 35011 ft 563 kts 67°
2026-04-12 05:38 33.96324 133.17506 35029 ft 564 kts 67°
2026-04-12 05:39 33.98778 133.26503 35034 ft 564 kts 66°
2026-04-12 05:39 34.01226 133.35497 35027 ft 564 kts 67°
2026-04-12 05:40 34.03664 133.44490 35033 ft 565 kts 67°
2026-04-12 05:40 34.06289 133.53399 35035 ft 563 kts 64°
2026-04-12 05:41 34.09014 133.62197 35029 ft 565 kts 64°
2026-04-12 05:41 34.11735 133.71089 35036 ft 564 kts 64°
2026-04-12 05:42 34.14442 133.79987 35049 ft 564 kts 64°
2026-04-12 05:42 34.17125 133.88849 35049 ft 565 kts 64°
2026-04-12 05:43 34.21198 134.02216 35050 ft 567 kts 67°
2026-04-12 05:43 34.23174 134.11515 35026 ft 574 kts 72°
2026-04-12 05:44 34.25018 134.20876 35043 ft 573 kts 72°
2026-04-12 05:44 34.26877 134.30231 35040 ft 571 kts 72°
2026-04-12 05:45 34.28738 134.39586 35021 ft 574 kts 72°
2026-04-12 05:45 34.30592 134.48951 35048 ft 572 kts 72°
2026-04-12 05:46 34.32440 134.58312 35052 ft 572 kts 72°
2026-04-12 05:46 34.34272 134.67628 35043 ft 572 kts 72°
2026-04-12 05:47 34.36104 134.76979 35054 ft 571 kts 72°
2026-04-12 05:47 34.37933 134.86357 35045 ft 571 kts 72°
2026-04-12 05:48 34.39541 134.95745 35031 ft 575 kts 75°
2026-04-12 05:48 34.41054 135.05258 35045 ft 576 kts 75°
2026-04-12 05:49 34.42334 135.13233 35045 ft 576 kts 75°
2026-04-12 05:49 34.43856 135.22721 35046 ft 573 kts 75°
2026-04-12 05:50 34.45589 135.32041 35055 ft 564 kts 63°
2026-04-12 05:50 34.47316 135.36229 35055 ft 550 kts 50°
2026-04-12 05:50 34.49352 135.40145 35081 ft 550 kts 49°
2026-04-12 05:51 34.53397 135.48067 35046 ft 551 kts 50°
2026-04-12 05:51 34.57372 135.56028 35045 ft 551 kts 50°
2026-04-12 05:52 34.61327 135.64024 35040 ft 553 kts 50°
2026-04-12 05:52 34.65240 135.71983 35031 ft 552 kts 50°
2026-04-12 05:53 34.69173 135.80029 35030 ft 554 kts 50°
2026-04-12 05:53 34.71120 135.84029 34802 ft 543 kts 50°
2026-04-12 05:53 34.73008 135.87930 34555 ft 528 kts 50°
2026-04-12 05:54 34.74847 135.91725 34329 ft 513 kts 50°
2026-04-12 05:54 34.76643 135.95401 34082 ft 499 kts 49°
2026-04-12 05:54 34.78405 135.99012 33874 ft 495 kts 49°
2026-04-12 05:54 34.80156 136.02614 33638 ft 496 kts 49°
2026-04-12 05:55 34.81916 136.06242 33291 ft 499 kts 50°
2026-04-12 05:55 34.83677 136.09880 32935 ft 497 kts 50°
2026-04-12 05:55 34.85405 136.13438 32543 ft 493 kts 50°
2026-04-12 05:55 34.87152 136.17017 32259 ft 490 kts 50°
2026-04-12 05:56 34.88890 136.20582 31948 ft 488 kts 51°
2026-04-12 05:56 34.90616 136.24130 31628 ft 486 kts 51°
2026-04-12 05:56 34.92335 136.27670 31240 ft 484 kts 51°
2026-04-12 05:56 34.94047 136.31193 30856 ft 481 kts 52°
2026-04-12 05:57 34.95741 136.34692 30447 ft 478 kts 52°
2026-04-12 05:57 34.97424 136.38172 30053 ft 474 kts 52°
2026-04-12 05:57 34.99091 136.41627 29585 ft 472 kts 52°
2026-04-12 05:57 35.00754 136.45074 29145 ft 471 kts 53°
2026-04-12 05:58 35.02391 136.48488 28689 ft 470 kts 53°
2026-04-12 05:58 35.04041 136.51917 28255 ft 466 kts 53°
2026-04-12 05:58 35.05674 136.55315 27823 ft 461 kts 53°
2026-04-12 05:58 35.07288 136.58680 27403 ft 457 kts 53°
2026-04-12 05:59 35.08887 136.62015 27016 ft 452 kts 54°
2026-04-12 05:59 35.10450 136.65289 27165 ft 448 kts 54°
2026-04-12 05:59 35.12029 136.68596 27188 ft 451 kts 54°
2026-04-12 05:59 35.13608 136.71932 27187 ft 455 kts 54°
2026-04-12 06:00 35.15190 136.75279 27150 ft 455 kts 54°
2026-04-12 06:00 35.16763 136.78574 27073 ft 455 kts 53°
2026-04-12 06:00 35.18350 136.81907 27076 ft 453 kts 53°
2026-04-12 06:00 35.19956 136.85273 27091 ft 462 kts 53°
2026-04-12 06:01 35.21571 136.88667 27079 ft 461 kts 53°
2026-04-12 06:01 35.23472 136.91763 27094 ft 450 kts 39°
2026-04-12 06:01 35.25714 136.94442 26414 ft 451 kts 34°
2026-04-12 06:01 35.28038 136.96994 25688 ft 446 kts 35°
2026-04-12 06:02 35.30308 136.99530 25106 ft 436 kts 36°
2026-04-12 06:02 35.32515 137.02028 24588 ft 426 kts 36°
2026-04-12 06:02 35.34666 137.04470 24089 ft 417 kts 36°
2026-04-12 06:02 35.36739 137.06849 23620 ft 410 kts 37°
2026-04-12 06:03 35.38808 137.09225 23069 ft 405 kts 37°
2026-04-12 06:03 35.40858 137.11582 22535 ft 402 kts 37°
2026-04-12 06:03 35.42899 137.13931 22003 ft 400 kts 37°
2026-04-12 06:03 35.44924 137.16267 21492 ft 397 kts 37°
2026-04-12 06:04 35.46932 137.18596 20990 ft 394 kts 37°
2026-04-12 06:04 35.48890 137.20866 20505 ft 391 kts 37°
2026-04-12 06:04 35.50855 137.23152 20022 ft 387 kts 37°
2026-04-12 06:04 35.52793 137.25422 19552 ft 383 kts 37°
2026-04-12 06:05 35.54721 137.27671 19089 ft 380 kts 37°
2026-04-12 06:05 35.56636 137.29895 18638 ft 377 kts 37°
2026-04-12 06:05 35.58534 137.32108 18182 ft 374 kts 37°
2026-04-12 06:05 35.60406 137.34309 17703 ft 370 kts 38°
2026-04-12 06:06 35.62262 137.36483 17237 ft 366 kts 38°
2026-04-12 06:06 35.64093 137.38637 16834 ft 362 kts 38°
2026-04-12 06:06 35.65915 137.40782 16432 ft 363 kts 38°
2026-04-12 06:06 35.67735 137.42921 16029 ft 361 kts 38°
2026-04-12 06:07 35.69540 137.45056 15636 ft 360 kts 39°
2026-04-12 06:07 35.71336 137.47183 15261 ft 357 kts 39°
2026-04-12 06:07 35.73090 137.49276 14872 ft 355 kts 39°
2026-04-12 06:07 35.74853 137.51351 14489 ft 345 kts 39°
2026-04-12 06:08 35.76564 137.53371 14120 ft 336 kts 39°
2026-04-12 06:08 35.78225 137.55316 13782 ft 324 kts 39°
2026-04-12 06:08 35.79837 137.57233 13359 ft 319 kts 40°
2026-04-12 06:08 35.81418 137.59121 12987 ft 313 kts 39°
2026-04-12 06:09 35.82975 137.60960 12649 ft 308 kts 39°
2026-04-12 06:09 35.84508 137.62782 12318 ft 304 kts 39°
2026-04-12 06:09 35.86026 137.64590 12006 ft 303 kts 40°
2026-04-12 06:09 35.87517 137.66378 12017 ft 296 kts 39°
2026-04-12 06:10 35.88987 137.68179 12027 ft 302 kts 46°
2026-04-12 06:10 35.89989 137.70496 11553 ft 324 kts 73°
2026-04-12 06:10 35.90082 137.73255 11280 ft 320 kts 92°
2026-04-12 06:10 35.89981 137.75990 10828 ft 317 kts 89°
2026-04-12 06:11 35.89924 137.78687 10474 ft 311 kts 89°
2026-04-12 06:11 35.89923 137.81340 10107 ft 307 kts 88°
2026-04-12 06:11 35.89963 137.83956 9769 ft 303 kts 89°
2026-04-12 06:11 35.90010 137.86546 9375 ft 300 kts 88°
2026-04-12 06:12 35.90088 137.89063 9030 ft 296 kts 88°
2026-04-12 06:12 35.90169 137.91573 8710 ft 289 kts 88°
2026-04-12 06:12 35.90432 137.93988 8413 ft 281 kts 69°
2026-04-12 06:12 35.91538 137.95890 8143 ft 271 kts 39°
2026-04-12 06:13 35.93064 137.97216 7859 ft 266 kts 31°
2026-04-12 06:13 35.94606 137.98467 7546 ft 264 kts 33°
2026-04-12 06:13 35.96106 137.99751 7232 ft 259 kts 33°
2026-04-12 06:13 35.97566 138.01025 6958 ft 254 kts 34°
2026-04-12 06:14 35.99029 138.02209 6642 ft 248 kts 26°
2026-04-12 06:14 36.00590 138.03050 6318 ft 242 kts 16°
2026-04-12 06:14 36.02223 138.03442 6027 ft 234 kts
2026-04-12 06:14 36.03752 138.03382 5999 ft 207 kts 352°
2026-04-12 06:15 36.05067 138.03028 5970 ft 183 kts 342°
2026-04-12 06:15 36.06258 138.02454 5399 ft 190 kts 333°
2026-04-12 06:15 36.07362 138.01605 4985 ft 183 kts 323°
2026-04-12 06:15 36.08270 138.00622 4696 ft 168 kts 317°
2026-04-12 06:16 36.09005 137.99549 4388 ft 159 kts 308°
2026-04-12 06:16 36.09569 137.98451 4233 ft 145 kts 303°
2026-04-12 06:16 36.09993 137.97326 4001 ft 144 kts 294°
2026-04-12 06:16 36.10324 137.96156 3687 ft 145 kts 292°
2026-04-12 06:17 36.10695 137.95028 3407 ft 136 kts 301°
2026-04-12 06:17 36.11252 137.94113 3160 ft 131 kts 317°
2026-04-12 06:17 36.11965 137.93459 2968 ft 124 kts 331°
2026-04-12 06:17 36.12763 137.93066 2803 ft 123 kts 344°
2026-04-12 06:18 36.13596 137.92869 2644 ft 122 kts 352°
2026-04-12 06:18 36.14450 137.92716 2519 ft 126 kts 350°
2026-04-12 06:18 36.15296 137.92540 2337 ft 122 kts 352°
2026-04-12 06:18 36.16120 137.92377 2183 ft 113 kts 352°
2026-04-12 06:19 36.16777 137.92247 2157 ft 76 kts 351°
2026-04-12 06:19 36.17199 137.92166 2146 ft 48 kts 352°
2026-04-12 06:19 36.17442 137.92118 2140 ft 25 kts 352°
2026-04-12 06:19 36.17563 137.92103 2139 ft 11 kts
2026-04-12 06:20 36.17591 137.92095 2138 ft 1 kts 276°
2026-04-12 06:20 36.17583 137.92082 2138 ft 1 kts 195°
2026-04-12 06:20 36.17513 137.92099 2140 ft 22 kts 168°
2026-04-12 06:20 36.17328 137.92139 2144 ft 28 kts 171°
2026-04-12 06:21 36.17128 137.92179 2148 ft 33 kts 171°
2026-04-12 06:21 36.16859 137.92232 2158 ft 45 kts 171°
2026-04-12 06:21 36.16565 137.92289 2167 ft 32 kts 172°
2026-04-12 06:21 36.16425 137.92329 2170 ft 12 kts 136°
2026-04-12 06:22 36.16419 137.92400 2169 ft 11 kts 80°
2026-04-12 06:22 36.16420 137.92490 2164 ft 6 kts 125°
2026-04-12 06:22 36.16394 137.92511 2164 ft 1 kts 141°
2026-04-12 06:22 36.16390 137.92525 2166 ft 3 kts 73°
2026-04-12 06:23 36.16400 137.92561 2168 ft 4 kts 79°
2026-04-12 06:23 36.16402 137.92577 2163 ft 0 kts 80°
2026-04-12 06:25 36.16404 137.92586 4662 ft 2 kts 81°
2026-04-12 06:26 36.16406 137.92602 4676 ft 6 kts 79°
2026-04-12 06:26 36.16424 137.92727 4660 ft 23 kts 81°